[[{"header":{"parameterUnit":"m.s-1","parameterCategory":2,"la1":30.2991,"la2":30.254,"lo1":-89.0895,"lo2":-89.0444,"dy":0.0017,"dx":0.0017,"nx":28,"ny":28,"refTime":"2025-07-26T21:00:00:Z","depth":"0","parameterNumber":2,"parameterNumberName":"U-component_of_CURRENTS"},"data":[0,0,0,0,0,0,0,0,0,0,0,0,0,0,0,0,0,0,0,0,0,0,0,0,0,0,0,0,0,0,0,0,0,0,0,0,0,0,0,0,0,0,0,0,0,0,0,0,0,0,0,0,0,0,0,0,0,0,0.1718,0.1718,0,0.1733,0.1733,0.1733,0.1726,0.1726,0.1726,0.1726,0.1738,0.1739,0.1739,0,0,0,0,0,0,0,0,0,0,0,0,0,0.1672,0.1673,0.1717,0.1718,0.1719,0.1733,0.1733,0.1733,0.1726,0.1726,0.1726,0.1726,0.1738,0.1739,0.1739,0,0,0,0,0,0,0,0,0,0,0,0,0,0.1686,0.1673,0.1717,0.172,0.172,0.1733,0.1733,0.1733,0.1726,0.1726,0.1726,0.1726,0.1738,0.1739,0.1739,0.1743,0,0,0.1741,0.1741,0,0,0,0,0,0,0,0,0.1686,0.1687,0.1719,0.172,0.1721,0.1731,0.1722,0.1737,0.1726,0.172,0.1726,0.1726,0.1738,0.1739,0.1736,0.1744,0.1744,0.1741,0.1741,0.1741,0.1742,0,0,0,0,0,0,0,0.1685,0.1687,0.172,0.172,0.1721,0.1717,0.1719,0.1724,0.1726,0.172,0.1721,0.1729,0.1738,0.1736,0.1736,0.1744,0.1741,0.1741,0.1742,0.1742,0.1754,0.1754,0,0,0,0,0,0,0.1691,0.1686,0.1719,0.172,0.1707,0.1718,0.172,0.1724,0.1726,0.1727,0.1729,0.1728,0.1735,0.1736,0.1737,0.1749,0.1741,0.1742,0.1742,0.1754,0.1754,0.1754,0,0,0,0,0,0,0.169,0.1694,0.1719,0.1707,0.171,0.172,0.1724,0.1725,0.1725,0.1733,0.1734,0.1729,0.1735,0.1736,0.1742,0.1749,0.1742,0.1743,0.1754,0.1754,0.1754,0.1769,0,0,0,0,0,0,0.1689,0.1693,0.1694,0.1707,0.1711,0.1728,0.1725,0.1725,0.1732,0.1731,0.1734,0.1735,0.1735,0.1741,0.1742,0.175,0.1743,0.1754,0.1754,0.1754,0.1769,0.177,0.177,0,0,0,0,0,0.1687,0.169,0.1694,0.1698,0.1714,0.1729,0.173,0.1734,0.1732,0.1733,0.1733,0.1735,0.1742,0.1742,0.1743,0.1751,0.1754,0.1754,0.1754,0.1768,0.1769,0.177,0,0,0,0,0,0,0.1662,0.1691,0.1695,0.1704,0.1718,0.173,0.1732,0.1736,0.1736,0.1733,0.1736,0.1737,0.1744,0.1744,0.1744,0.1753,0.1748,0.1748,0.1758,0.1759,0.176,0.1757,0.1744,0,0,0,0,0,0.1661,0.1676,0.1696,0.1703,0.171,0.172,0.1726,0.173,0.1737,0.1736,0.174,0.1741,0.1745,0.1749,0.1751,0.1759,0.1763,0.1764,0.1765,0.1765,0.1764,0.1783,0.1785,0.1755,0.1755,0.1755,0,0,0.1651,0.1672,0.1677,0.17,0.1708,0.1716,0.1722,0.1732,0.1738,0.1738,0.1742,0.1745,0.1747,0.1754,0.1757,0.1756,0.1776,0.1765,0.1766,0.1764,0.1783,0.1786,0.1789,0.1755,0.1755,0.1755,0,0,0.1645,0.1659,0.1668,0.1682,0.1704,0.1713,0.1718,0.1732,0.1736,0.1744,0.1745,0.1753,0.1758,0.1763,0.1766,0.1773,0.1779,0.1773,0.1779,0.1798,0.1801,0.1804,0.1812,0.1815,0.1775,0.1775,0.1775,0,0.1628,0.1646,0.1671,0.1683,0.1693,0.1712,0.1716,0.1726,0.174,0.1744,0.1746,0.1757,0.1762,0.1773,0.1775,0.1777,0.1784,0.1777,0.18,0.1803,0.1806,0.1814,0.1817,0.1776,0.1776,0.1776,0.1776,0,0.163,0.1641,0.1648,0.1671,0.1685,0.1692,0.1715,0.1722,0.1731,0.1742,0.1756,0.1766,0.1772,0.1779,0.178,0.1799,0.1798,0.18,0.18,0.181,0.1817,0.1821,0.1777,0.1777,0.1777,0.1777,0,0,0.1579,0.1638,0.1633,0.1644,0.1678,0.1683,0.1701,0.1718,0.1721,0.1743,0.175,0.177,0.1778,0.1782,0.1791,0.181,0.1836,0.1813,0.1814,0.1825,0.1873,0.1882,0.1887,0.1846,0.1847,0.1847,0.1871,0,0.1562,0.1587,0.162,0.1626,0.1636,0.1665,0.168,0.1699,0.1717,0.1728,0.1755,0.1764,0.178,0.1782,0.1808,0.1825,0.1846,0.1829,0.1858,0.1858,0.1869,0.1891,0.1902,0.1924,0.1874,0.1875,0.1875,0,0.1533,0.156,0.1574,0.161,0.1614,0.162,0.1638,0.1656,0.1688,0.1704,0.1729,0.1747,0.1778,0.1789,0.1839,0.1828,0.1851,0.1869,0.187,0.1876,0.1875,0.1906,0.1932,0.1932,0.188,0.188,0.1879,0,0.1473,0.1512,0.1524,0.1536,0.1586,0.1588,0.1606,0.1639,0.1651,0.1684,0.1693,0.1738,0.1752,0.1797,0.1843,0.184,0.1897,0.1895,0.1926,0.1926,0.1939,0.1939,0.1971,0.1932,0.1932,0.1932,0.1932,0,0.1434,0.143,0.1495,0.1497,0.1504,0.1548,0.155,0.1576,0.161,0.1623,0.1673,0.1688,0.1756,0.1797,0.1841,0.1899,0.1899,0.1932,0.1938,0.1943,0.1944,0.1945,0.192,0.1933,0.1933,0.1933,0.1932,0,0.1357,0.1402,0.1412,0.1465,0.1477,0.1475,0.1514,0.1518,0.1558,0.1575,0.1585,0.1648,0.1705,0.1775,0.1844,0.1889,0.1905,0.1963,0.1961,0.1967,0.199,0.1964,0.184,0.1775,0.1997,0.1997,0.1998,0,0.1325,0.1328,0.1376,0.1384,0.1403,0.1418,0.1431,0.1482,0.1495,0.155,0.1555,0.1614,0.1662,0.1775,0.1863,0.195,0.1898,0.201,0.2008,0.1999,0.1975,0.1831,0.1773,0.2028,0.2028,0.2029,0.2029,0,0.1264,0.1278,0.1296,0.1321,0.1333,0.1352,0.1376,0.1384,0.1446,0.1469,0.1512,0.1553,0.1669,0.1771,0.1892,0.1953,0.1929,0.2021,0.2019,0.2009,0.1845,0.1784,0.1993,0.2033,0.2033,0.2033,0.2032,0.2032,0.1208,0.1208,0.1239,0.1254,0.1272,0.1289,0.1294,0.1331,0.1358,0.1399,0.1458,0.152,0.1681,0.1849,0.1942,0.2065,0.1924,0.2072,0.2043,0.1897,0.1825,0.2037,0.2081,0.208,0.208,0.208,0.208,0,0.1142,0.1157,0.1172,0.1195,0.1198,0.123,0.126,0.127,0.1296,0.1353,0.1398,0.1542,0.1695,0.1862,0.2052,0.2102,0.2,0.2078,0.1905,0.1849,0.2081,0.208,0.2116,0.2116,0.2116,0.2116,0.2116,0.2116,0.1107,0.1103,0.1122,0.1121,0.1136,0.114,0.1154,0.1182,0.1227,0.1287,0.1359,0.1445,0.1665,0.1927,0.2111,0.2109,0.1962,0.1892,0.181,0.205,0.2047,0.2045,0.204,0.2068,0.2068,0.1528,0.1524,0.1522]},{"header":{"parameterUnit":"m.s-1","parameterCategory":2,"la1":30.2991,"la2":30.254,"lo1":-89.0895,"lo2":-89.0444,"dy":0.0017,"dx":0.0017,"nx":28,"ny":28,"refTime":"2025-07-26T21:00:00:Z","depth":"0","parameterNumber":3,"parameterNumberName":"V-component_of_CURRENTS"},"data":[0,0,0,0,0,0,0,0,0,0,0,0,0,0,0,0,0,0,0,0,0,0,0,0,0,0,0,0,0,0,0,0,0,0,0,0,0,0,0,0,0,0,0,0,0,0,0,0,0,0,0,0,0,0,0,0,0,0,-0.1053,-0.1054,0,-0.1063,-0.1063,-0.1063,-0.1041,-0.1041,-0.104,-0.104,-0.1018,-0.1018,-0.1018,0,0,0,0,0,0,0,0,0,0,0,0,0,-0.1008,-0.1009,-0.1053,-0.1054,-0.1054,-0.1063,-0.1063,-0.1063,-0.1041,-0.1041,-0.104,-0.104,-0.1018,-0.1018,-0.1018,0,0,0,0,0,0,0,0,0,0,0,0,0,-0.1022,-0.1009,-0.1053,-0.1046,-0.1045,-0.1063,-0.1063,-0.1063,-0.1042,-0.1041,-0.104,-0.1039,-0.1018,-0.1018,-0.1018,-0.1034,0,0,-0.1018,-0.1018,0,0,0,0,0,0,0,0,-0.1021,-0.1023,-0.1046,-0.1046,-0.1046,-0.1051,-0.1039,-0.1052,-0.1042,-0.1041,-0.104,-0.1039,-0.1028,-0.1027,-0.1029,-0.1033,-0.1032,-0.1018,-0.1018,-0.1018,-0.1018,0,0,0,0,0,0,0,-0.102,-0.1023,-0.1056,-0.1047,-0.1046,-0.1038,-0.1039,-0.1041,-0.1037,-0.1041,-0.104,-0.1044,-0.1027,-0.1029,-0.1028,-0.1032,-0.1018,-0.1018,-0.1018,-0.1018,-0.1047,-0.1048,0,0,0,0,0,0,-0.1024,-0.1022,-0.1055,-0.1056,-0.1033,-0.104,-0.1041,-0.1049,-0.1038,-0.1036,-0.1045,-0.1043,-0.103,-0.1028,-0.1027,-0.1027,-0.1018,-0.1018,-0.1018,-0.1046,-0.1047,-0.1048,0,0,0,0,0,0,-0.1023,-0.1027,-0.1055,-0.104,-0.1043,-0.1042,-0.1051,-0.105,-0.1054,-0.1041,-0.1038,-0.105,-0.1029,-0.1028,-0.1035,-0.1027,-0.1018,-0.1018,-0.1045,-0.1047,-0.1048,-0.1038,0,0,0,0,0,0,-0.1022,-0.1027,-0.1035,-0.1041,-0.1044,-0.1068,-0.1052,-0.1051,-0.1058,-0.1056,-0.1045,-0.1042,-0.1028,-0.1035,-0.1035,-0.1027,-0.1018,-0.1044,-0.1046,-0.1047,-0.1038,-0.1039,-0.104,0,0,0,0,0,-0.102,-0.1033,-0.1035,-0.1039,-0.1055,-0.1068,-0.1069,-0.1064,-0.1059,-0.1064,-0.1059,-0.1043,-0.1044,-0.1036,-0.1035,-0.1027,-0.1044,-0.1046,-0.1047,-0.1037,-0.1039,-0.104,0,0,0,0,0,0,-0.1015,-0.1033,-0.1035,-0.1052,-0.1061,-0.1065,-0.107,-0.1071,-0.1073,-0.1067,-0.1056,-0.1053,-0.1054,-0.1053,-0.1044,-0.1044,-0.1041,-0.1043,-0.1033,-0.1035,-0.1036,-0.1018,-0.1017,0,0,0,0,0,-0.1021,-0.1037,-0.1048,-0.1064,-0.1068,-0.1072,-0.1077,-0.1074,-0.1076,-0.1076,-0.1071,-0.1067,-0.1063,-0.1059,-0.1059,-0.1062,-0.1051,-0.1058,-0.1059,-0.106,-0.1048,-0.1035,-0.1033,-0.1055,-0.1055,-0.1055,0,0,-0.1021,-0.1036,-0.1044,-0.1064,-0.1069,-0.1069,-0.1073,-0.108,-0.1077,-0.1074,-0.1071,-0.1074,-0.1068,-0.1066,-0.1066,-0.1061,-0.1052,-0.1063,-0.1063,-0.105,-0.1036,-0.1034,-0.1032,-0.1056,-0.1056,-0.1055,0,0,-0.1029,-0.1046,-0.1057,-0.1064,-0.1076,-0.1075,-0.108,-0.1086,-0.1085,-0.1091,-0.1084,-0.1084,-0.1086,-0.1073,-0.1068,-0.1082,-0.1063,-0.1088,-0.1071,-0.106,-0.1057,-0.1055,-0.1046,-0.1042,-0.1084,-0.1084,-0.1084,0,-0.1028,-0.1044,-0.1062,-0.1069,-0.1069,-0.1077,-0.1075,-0.1077,-0.1085,-0.1082,-0.1087,-0.1083,-0.1083,-0.1066,-0.107,-0.108,-0.1074,-0.1061,-0.1059,-0.1056,-0.1053,-0.1045,-0.1041,-0.1084,-0.1084,-0.1084,-0.1084,0,-0.1038,-0.1047,-0.1054,-0.1061,-0.1065,-0.1068,-0.1069,-0.107,-0.1072,-0.1071,-0.1067,-0.1071,-0.1062,-0.1069,-0.107,-0.1054,-0.1057,-0.1063,-0.1047,-0.105,-0.1042,-0.1038,-0.1083,-0.1083,-0.1084,-0.1084,0,0,-0.1036,-0.1056,-0.1056,-0.1052,-0.1059,-0.1058,-0.1053,-0.1048,-0.1034,-0.1046,-0.1029,-0.1035,-0.1037,-0.1032,-0.1037,-0.1029,-0.1014,-0.1037,-0.1037,-0.1015,-0.0989,-0.0994,-0.0991,-0.1018,-0.1018,-0.1017,-0.0993,0,-0.1033,-0.1043,-0.1051,-0.1041,-0.104,-0.1039,-0.1032,-0.1026,-0.1022,-0.101,-0.1012,-0.1003,-0.1023,-0.1017,-0.1012,-0.1013,-0.1004,-0.102,-0.1001,-0.1,-0.0992,-0.0986,-0.0946,-0.092,-0.0989,-0.0988,-0.0988,0,-0.1029,-0.1038,-0.1035,-0.1027,-0.1024,-0.1016,-0.0993,-0.0988,-0.0975,-0.0973,-0.0963,-0.0964,-0.0954,-0.0973,-0.0963,-0.0974,-0.0978,-0.0981,-0.098,-0.098,-0.0998,-0.0929,-0.0911,-0.0908,-0.0982,-0.0982,-0.0983,0,-0.1012,-0.1017,-0.1013,-0.1012,-0.1009,-0.0998,-0.099,-0.0975,-0.0962,-0.0944,-0.0929,-0.0923,-0.0913,-0.0918,-0.0932,-0.0944,-0.0921,-0.0937,-0.0943,-0.0944,-0.0902,-0.09,-0.0864,-0.0922,-0.0922,-0.0922,-0.0922,0,-0.1,-0.099,-0.1004,-0.1,-0.0982,-0.0984,-0.0956,-0.0947,-0.0928,-0.0902,-0.0908,-0.0883,-0.0898,-0.0891,-0.0911,-0.0914,-0.0904,-0.093,-0.0933,-0.0901,-0.0899,-0.089,-0.0906,-0.0921,-0.0921,-0.0921,-0.0922,0,-0.097,-0.0986,-0.0975,-0.0977,-0.0974,-0.0958,-0.0935,-0.0911,-0.0902,-0.0865,-0.0858,-0.0845,-0.0835,-0.0852,-0.0854,-0.0881,-0.0887,-0.0892,-0.0856,-0.0856,-0.0868,-0.0886,-0.0863,-0.0883,-0.089,-0.089,-0.089,0,-0.0956,-0.0953,-0.0954,-0.0944,-0.0941,-0.0923,-0.0906,-0.0898,-0.0872,-0.0839,-0.0817,-0.0798,-0.0775,-0.0786,-0.0813,-0.0835,-0.0865,-0.0833,-0.0849,-0.0852,-0.0874,-0.0893,-0.0913,-0.0791,-0.079,-0.0789,-0.0789,0,-0.0919,-0.0923,-0.0914,-0.0903,-0.0886,-0.0865,-0.0842,-0.0823,-0.0806,-0.0775,-0.0734,-0.0714,-0.0719,-0.0713,-0.0753,-0.0777,-0.083,-0.082,-0.0821,-0.0788,-0.0805,-0.0831,-0.0832,-0.0782,-0.0783,-0.0783,-0.0784,-0.0784,-0.0879,-0.0866,-0.086,-0.0839,-0.0827,-0.0797,-0.0757,-0.0737,-0.0694,-0.0619,-0.0646,-0.0567,-0.0607,-0.0646,-0.0706,-0.0748,-0.0784,-0.0755,-0.0774,-0.0791,-0.0813,-0.0807,-0.0769,-0.077,-0.077,-0.077,-0.0771,0,-0.0812,-0.0806,-0.0792,-0.0763,-0.0732,-0.0742,-0.07,-0.0648,-0.0582,-0.0521,-0.0472,-0.0407,-0.0442,-0.0512,-0.0591,-0.0664,-0.0719,-0.0707,-0.0706,-0.0731,-0.0706,-0.0704,-0.0652,-0.0652,-0.0652,-0.0652,-0.0652,-0.0652,-0.0775,-0.0741,-0.0738,-0.0673,-0.0654,-0.0584,-0.0548,-0.049,-0.0432,-0.0308,-0.0217,-0.0181,-0.0188,-0.038,-0.0518,-0.0581,-0.0663,-0.0679,-0.0741,-0.0697,-0.0702,-0.0708,-0.0708,-0.0658,-0.0658,-0.0742,-0.0742,-0.0743]}],[{"header":{"parameterUnit":"m.s-1","parameterCategory":2,"la1":30.2991,"la2":30.254,"lo1":-89.0895,"lo2":-89.0444,"dy":0.0017,"dx":0.0017,"nx":28,"ny":28,"refTime":"2025-07-26T21:00:00:Z","depth":"2","parameterNumber":2,"parameterNumberName":"U-component_of_CURRENTS"},"data":[0,0,0,0,0,0,0,0,0,0,0,0,0,0,0,0,0,0,0,0,0,0,0,0,0,0,0,0,0,0,0,0,0,0,0,0,0,0,0,0,0,0,0,0,0,0,0,0,0,0,0,0,0,0,0,0,0,0,-0.0033,-0.0033,0,-0.0021,-0.002,-0.002,0.0008,0.0009,0.001,0.001,0.0062,0.0063,0.0063,0,0,0,0,0,0,0,0,0,0,0,0,0,-0.0021,-0.0022,-0.0033,-0.0033,-0.0033,-0.0021,-0.002,-0.002,0.0008,0.0009,0.001,0.001,0.0062,0.0063,0.0064,0,0,0,0,0,0,0,0,0,0,0,0,0,-0.0019,-0.0022,-0.0033,-0.0017,-0.0016,-0.0021,-0.002,-0.002,0.0008,0.0009,0.001,0.0011,0.0061,0.0062,0.0064,0.0054,0,0,0.0068,0.0068,0,0,0,0,0,0,0,0,-0.002,-0.002,-0.002,-0.0019,-0.0017,-0.0007,0.0003,0.0007,0.0008,-0.0001,0.001,0.0011,0.0042,0.0045,0.0045,0.0057,0.0059,0.0068,0.0068,0.0069,0.0069,0,0,0,0,0,0,0,-0.002,-0.002,-0.0028,-0.002,-0.0018,-0.0007,-0.0006,0.0004,0.0016,0.0,0.0002,0.0003,0.0043,0.0043,0.0046,0.006,0.0068,0.0069,0.007,0.007,0.0111,0.0111,0,0,0,0,0,0,-0.0023,-0.0021,-0.0029,-0.0028,-0.0016,-0.0008,-0.0007,-0.0011,0.0015,0.002,0.0002,0.0004,0.0041,0.0045,0.0048,0.0101,0.0069,0.007,0.0071,0.0111,0.0111,0.0112,0,0,0,0,0,0,-0.0023,-0.0024,-0.0029,-0.0023,-0.0023,-0.0009,-0.0014,-0.0011,0.0008,0.0017,0.0022,0.0021,0.0042,0.0047,0.0073,0.0101,0.0071,0.0072,0.011,0.0111,0.0111,0.0166,0,0,0,0,0,0,-0.0023,-0.0025,-0.0017,-0.0024,-0.0024,-0.002,-0.0015,-0.0011,0.0006,0.001,0.0034,0.0038,0.0043,0.0071,0.0074,0.0102,0.0073,0.011,0.0111,0.0111,0.0164,0.0168,0.0172,0,0,0,0,0,-0.0023,-0.0014,-0.0017,-0.0017,-0.0018,-0.002,-0.0018,-0.0005,0.0006,0.0016,0.0034,0.0039,0.0077,0.0072,0.0076,0.0105,0.011,0.011,0.0111,0.0162,0.0167,0.0172,0,0,0,0,0,0,0.0012,-0.0011,-0.0014,-0.0008,-0.0011,-0.0015,0.0001,0.0003,0.0024,0.0038,0.0045,0.005,0.0082,0.0079,0.0074,0.0115,0.0093,0.0095,0.013,0.0136,0.014,0.0155,0.0074,0,0,0,0,0,0.0016,0.0008,-0.0005,0.0002,0.0003,0.0003,0.0009,0.0015,0.0026,0.0037,0.0052,0.0068,0.0083,0.01,0.0107,0.0133,0.0151,0.0151,0.0155,0.0159,0.0172,0.0217,0.0227,0.0114,0.0114,0.0114,0,0,0.0033,0.0019,0.0018,0.0008,0.0011,0.0016,0.001,0.0025,0.0039,0.0039,0.0076,0.0084,0.009,0.0119,0.0134,0.0127,0.0201,0.016,0.0163,0.0174,0.0219,0.023,0.024,0.0115,0.0114,0.0114,0,0,0.0057,0.0051,0.005,0.0047,0.0047,0.0043,0.005,0.0054,0.0068,0.0091,0.0097,0.0123,0.0143,0.0158,0.0165,0.0195,0.0217,0.0198,0.0243,0.0287,0.0297,0.0306,0.0352,0.0365,0.0207,0.0207,0.0207,0,0.0089,0.0076,0.0055,0.0058,0.0065,0.0057,0.0071,0.0077,0.0093,0.0113,0.0112,0.0158,0.0162,0.0203,0.0216,0.0208,0.024,0.0227,0.0295,0.0305,0.0313,0.0357,0.0371,0.0209,0.0209,0.0209,0.0209,0,0.01,0.0103,0.0109,0.01,0.0105,0.0119,0.0117,0.0135,0.015,0.016,0.0206,0.0214,0.0248,0.0248,0.0246,0.0308,0.0314,0.0293,0.0289,0.0329,0.0372,0.0385,0.0213,0.0212,0.0212,0.0211,0,0,0.0163,0.0122,0.0135,0.0134,0.0132,0.0139,0.0163,0.0183,0.0216,0.0234,0.0283,0.0305,0.0322,0.0331,0.0334,0.0371,0.0456,0.037,0.0371,0.0427,0.0572,0.0607,0.0625,0.046,0.0462,0.0464,0.0582,0,0.0193,0.0187,0.0169,0.0193,0.0195,0.0196,0.0219,0.024,0.0261,0.0305,0.0324,0.0368,0.0349,0.0383,0.0416,0.0442,0.0493,0.0427,0.0515,0.0518,0.0554,0.0642,0.0512,0.0609,0.0594,0.0597,0.0598,0,0.0228,0.0214,0.0227,0.0228,0.0236,0.0259,0.0304,0.0322,0.0367,0.039,0.0436,0.045,0.0509,0.0483,0.057,0.0536,0.0571,0.0585,0.0589,0.0615,0.0578,0.0564,0.0634,0.062,0.0619,0.0617,0.0615,0,0.0271,0.0271,0.0279,0.028,0.0276,0.031,0.0328,0.0366,0.0395,0.0461,0.0499,0.0552,0.06,0.0641,0.0671,0.064,0.0765,0.0718,0.0783,0.0785,0.0687,0.0678,0.0799,0.0799,0.0799,0.0799,0.0798,0,0.0303,0.0323,0.0306,0.0312,0.0354,0.0352,0.0416,0.0438,0.0488,0.0538,0.056,0.0614,0.0647,0.0707,0.0721,0.0809,0.0812,0.0825,0.0832,0.0703,0.0694,0.07,0.0687,0.0803,0.0802,0.0801,0.08,0,0.0344,0.0329,0.0343,0.0352,0.0369,0.0407,0.0459,0.0499,0.0546,0.0615,0.0644,0.0695,0.0783,0.0811,0.0887,0.0891,0.0949,0.0977,0.0829,0.0819,0.0927,0.0915,0.1075,0.1078,0.108,0.1082,0.1083,0,0.0348,0.0356,0.0376,0.0396,0.041,0.046,0.0498,0.0537,0.0574,0.0661,0.0697,0.0799,0.0867,0.099,0.1039,0.1111,0.1046,0.0997,0.0915,0.0972,0.0963,0.0947,0.0933,0.08,0.0799,0.0798,0.0798,0,0.036,0.038,0.0385,0.0427,0.0471,0.0506,0.0561,0.0595,0.0648,0.0709,0.0792,0.0856,0.0995,0.1008,0.11,0.1106,0.0973,0.0989,0.1098,0.0759,0.0725,0.0711,0.0704,0.0791,0.0792,0.0792,0.0793,0.0793,0.038,0.0392,0.0411,0.0459,0.0502,0.055,0.0589,0.0638,0.0703,0.0781,0.0841,0.0877,0.0902,0.1003,0.1034,0.1034,0.1093,0.095,0.0946,0.0945,0.0901,0.0874,0.096,0.0961,0.0963,0.0964,0.0965,0,0.0389,0.0412,0.0442,0.0488,0.0534,0.057,0.0626,0.0649,0.0725,0.0774,0.0856,0.0738,0.0812,0.0816,0.0842,0.0911,0.087,0.0825,0.0692,0.0699,0.0705,0.0644,0.0637,0.0636,0.0636,0.0636,0,0,0.039,0.0416,0.0432,0.0506,0.0559,0.0619,0.066,0.068,0.0693,0.0639,0.0606,0.0783,0.0759,0.067,0.0703,0.0651,0.0674,0.0642,0.0893,0.074,0.0745,0.0759,0.0672,0,0,0,0,0]},{"header":{"parameterUnit":"m.s-1","parameterCategory":2,"la1":30.2991,"la2":30.254,"lo1":-89.0895,"lo2":-89.0444,"dy":0.0017,"dx":0.0017,"nx":28,"ny":28,"refTime":"2025-07-26T21:00:00:Z","depth":"2","parameterNumber":3,"parameterNumberName":"V-component_of_CURRENTS"},"data":[0,0,0,0,0,0,0,0,0,0,0,0,0,0,0,0,0,0,0,0,0,0,0,0,0,0,0,0,0,0,0,0,0,0,0,0,0,0,0,0,0,0,0,0,0,0,0,0,0,0,0,0,0,0,0,0,0,0,-0.0157,-0.0157,0,-0.0131,-0.013,-0.013,-0.0167,-0.0169,-0.017,-0.0172,-0.0162,-0.016,-0.0159,0,0,0,0,0,0,0,0,0,0,0,0,0,-0.0179,-0.0178,-0.0157,-0.0157,-0.0157,-0.0131,-0.013,-0.013,-0.0167,-0.0169,-0.0171,-0.0172,-0.0162,-0.016,-0.0158,0,0,0,0,0,0,0,0,0,0,0,0,0,-0.0161,-0.0178,-0.0157,-0.0174,-0.0175,-0.0131,-0.013,-0.0129,-0.0166,-0.0169,-0.0171,-0.0173,-0.0163,-0.0161,-0.0158,-0.0097,0,0,-0.015,-0.0149,0,0,0,0,0,0,0,0,-0.0162,-0.016,-0.0171,-0.0172,-0.0174,-0.0157,-0.0135,-0.012,-0.0166,-0.0167,-0.0172,-0.0174,-0.0161,-0.0159,-0.0146,-0.0096,-0.0096,-0.015,-0.0149,-0.0148,-0.0147,0,0,0,0,0,0,0,-0.0163,-0.0161,-0.0144,-0.0171,-0.0173,-0.0162,-0.0162,-0.0131,-0.015,-0.0167,-0.0171,-0.017,-0.0162,-0.0148,-0.0146,-0.0096,-0.015,-0.0148,-0.0147,-0.0146,-0.0118,-0.0119,0,0,0,0,0,0,-0.0171,-0.0162,-0.0145,-0.0144,-0.0176,-0.016,-0.016,-0.0158,-0.015,-0.0152,-0.0169,-0.0172,-0.0151,-0.0149,-0.0146,-0.0175,-0.0148,-0.0145,-0.0144,-0.0117,-0.0118,-0.0119,0,0,0,0,0,0,-0.0172,-0.017,-0.0146,-0.0154,-0.0151,-0.0158,-0.0155,-0.0156,-0.0178,-0.0152,-0.0154,-0.0194,-0.0153,-0.0149,-0.0151,-0.0172,-0.0144,-0.0142,-0.0116,-0.0117,-0.0118,-0.0169,0,0,0,0,0,0,-0.0172,-0.017,-0.0179,-0.0155,-0.0151,-0.0136,-0.0153,-0.0154,-0.0174,-0.0179,-0.0173,-0.0172,-0.0154,-0.0155,-0.0149,-0.0168,-0.014,-0.0115,-0.0117,-0.0118,-0.0166,-0.0172,-0.0176,0,0,0,0,0,-0.0173,-0.0169,-0.0179,-0.0178,-0.016,-0.0136,-0.0133,-0.0144,-0.0173,-0.0174,-0.0184,-0.0174,-0.0161,-0.0153,-0.0146,-0.0164,-0.0114,-0.0116,-0.0118,-0.0164,-0.0171,-0.0176,0,0,0,0,0,0,-0.0178,-0.0172,-0.0183,-0.0178,-0.0169,-0.0144,-0.0149,-0.0159,-0.0164,-0.0187,-0.0172,-0.017,-0.0184,-0.0163,-0.0156,-0.0163,-0.014,-0.014,-0.0178,-0.0184,-0.0189,-0.0185,-0.0138,0,0,0,0,0,-0.0183,-0.0187,-0.0173,-0.0172,-0.0173,-0.0169,-0.0167,-0.0176,-0.0173,-0.018,-0.0181,-0.0182,-0.0175,-0.0174,-0.0162,-0.0152,-0.0142,-0.0164,-0.0169,-0.0173,-0.0166,-0.0174,-0.0179,-0.0125,-0.0125,-0.0124,0,0,-0.0184,-0.0183,-0.0185,-0.0175,-0.0174,-0.0163,-0.0174,-0.018,-0.0181,-0.0174,-0.0193,-0.0199,-0.0177,-0.0179,-0.0183,-0.017,-0.0186,-0.0175,-0.0179,-0.0169,-0.0176,-0.0181,-0.0186,-0.0126,-0.0125,-0.0125,0,0,-0.0175,-0.019,-0.0188,-0.0183,-0.0187,-0.018,-0.0191,-0.0189,-0.0205,-0.021,-0.0218,-0.0238,-0.0221,-0.0214,-0.0205,-0.0225,-0.0215,-0.0234,-0.0251,-0.0259,-0.0264,-0.0267,-0.0274,-0.0278,-0.0234,-0.0234,-0.0234,0,-0.0182,-0.0172,-0.0182,-0.0175,-0.0173,-0.0193,-0.0184,-0.0188,-0.0193,-0.0203,-0.0229,-0.0236,-0.0233,-0.0224,-0.0245,-0.0236,-0.0241,-0.023,-0.0266,-0.0269,-0.0272,-0.0278,-0.0281,-0.0237,-0.0236,-0.0236,-0.0236,0,-0.0159,-0.0163,-0.0162,-0.0163,-0.016,-0.0158,-0.0164,-0.0184,-0.0218,-0.0223,-0.025,-0.0255,-0.0259,-0.0271,-0.0266,-0.0286,-0.0284,-0.0275,-0.0251,-0.0281,-0.0285,-0.0288,-0.024,-0.0239,-0.0239,-0.0238,0,0,-0.0155,-0.0146,-0.0154,-0.0149,-0.0158,-0.0147,-0.0163,-0.0166,-0.0181,-0.0218,-0.023,-0.0253,-0.0282,-0.0274,-0.0282,-0.0298,-0.034,-0.0306,-0.0305,-0.0312,-0.0367,-0.0329,-0.0329,-0.0346,-0.0346,-0.0347,-0.0366,0,-0.0141,-0.012,-0.0124,-0.0114,-0.0103,-0.0126,-0.0128,-0.0144,-0.0173,-0.0193,-0.0225,-0.0243,-0.0272,-0.0292,-0.0315,-0.0324,-0.0348,-0.0336,-0.0335,-0.0335,-0.0298,-0.033,-0.0223,-0.0227,-0.0368,-0.0368,-0.0369,0,-0.0127,-0.0112,-0.0098,-0.0085,-0.0085,-0.009,-0.011,-0.0113,-0.0145,-0.0171,-0.0209,-0.0233,-0.0266,-0.0292,-0.0332,-0.0328,-0.0358,-0.0371,-0.0372,-0.0316,-0.0302,-0.0217,-0.0226,-0.0373,-0.0373,-0.0372,-0.0372,0,-0.0119,-0.0099,-0.0089,-0.0086,-0.0075,-0.009,-0.0096,-0.0122,-0.0125,-0.0169,-0.0181,-0.0223,-0.0245,-0.0289,-0.0333,-0.0342,-0.037,-0.0376,-0.0369,-0.0366,-0.026,-0.0247,-0.0412,-0.0412,-0.0412,-0.0412,-0.0412,0,-0.0102,-0.0098,-0.0092,-0.0088,-0.0081,-0.0085,-0.0095,-0.0112,-0.0128,-0.0126,-0.0179,-0.0177,-0.0252,-0.0275,-0.0323,-0.0348,-0.0364,-0.0373,-0.0369,-0.0276,-0.0265,-0.0374,-0.0369,-0.0413,-0.0413,-0.0413,-0.0413,0,-0.0104,-0.01,-0.0087,-0.0081,-0.0083,-0.0089,-0.0089,-0.0085,-0.0111,-0.0112,-0.0127,-0.0151,-0.018,-0.0236,-0.0292,-0.0321,-0.0353,-0.036,-0.0247,-0.0229,-0.035,-0.0348,-0.0357,-0.0356,-0.0355,-0.0354,-0.0353,0,-0.0099,-0.0094,-0.009,-0.0085,-0.0092,-0.0093,-0.0086,-0.0093,-0.0081,-0.0083,-0.0071,-0.01,-0.0084,-0.0138,-0.0177,-0.0229,-0.0316,-0.0212,-0.0209,-0.035,-0.0345,-0.0344,-0.0343,-0.0096,-0.0093,-0.0091,-0.0089,0,-0.0081,-0.0098,-0.0082,-0.0075,-0.0074,-0.0049,-0.0042,-0.002,-0.0019,-0.0002,0.0032,0.005,0.0027,0.0044,-0.0034,-0.0068,-0.0194,-0.0169,-0.0335,-0.0126,-0.0105,-0.01,-0.0107,-0.0069,-0.0071,-0.0073,-0.0074,-0.0074,-0.0078,-0.0062,-0.0052,-0.0044,-0.0041,-0.0003,0.0035,0.0068,0.0115,0.0188,0.0176,0.0271,0.0254,0.0265,0.0129,-0.0023,-0.0028,-0.0073,-0.0079,-0.0088,-0.0054,-0.0032,0.0024,0.0022,0.0021,0.002,0.0019,0,-0.004,-0.0027,-0.001,0.0015,0.0039,0.0011,0.0075,0.016,0.0242,0.0332,0.0402,0.0518,0.0518,0.04,0.0239,0.0122,0.0103,0.0039,0.005,0.0036,0.0022,0.0059,0.0167,0.0166,0.0165,0.0164,0,0,-0.0013,0.0027,0.0046,0.0093,0.0087,0.0147,0.0188,0.032,0.0432,0.059,0.0685,0.0821,0.0687,0.0604,0.0435,0.0271,0.0163,0.0246,0.0166,0.019,0.0176,0.0025,0.0076,0,0,0,0,0]}],[{"header":{"parameterUnit":"m.s-1","parameterCategory":2,"la1":30.2991,"la2":30.254,"lo1":-89.0895,"lo2":-89.0444,"dy":0.0017,"dx":0.0017,"nx":28,"ny":28,"refTime":"2025-07-26T21:00:00:Z","depth":"4","parameterNumber":2,"parameterNumberName":"U-component_of_CURRENTS"},"data":[0,0,0,0,0,0,0,0,0,0,0,0,0,0,0,0,0,0,0,0,0,0,0,0,0,0,0,0,0,0,0,0,0,0,0,0,0,0,0,0,0,0,0,0,0,0,0,0,0,0,0,0,0,0,0,0,0,0,-0.0142,-0.0142,0,-0.0134,-0.0134,-0.0134,-0.0141,-0.0142,-0.0142,-0.0142,-0.0182,-0.0183,-0.0184,0,0,0,0,0,0,0,0,0,0,0,0,0,-0.0191,-0.019,-0.0143,-0.0142,-0.0142,-0.0134,-0.0134,-0.0134,-0.0141,-0.0142,-0.0142,-0.0142,-0.0182,-0.0183,-0.0184,0,0,0,0,0,0,0,0,0,0,0,0,0,-0.0177,-0.019,-0.0143,-0.0143,-0.0143,-0.0134,-0.0134,-0.0134,-0.0141,-0.0142,-0.0142,-0.0142,-0.0181,-0.0183,-0.0184,-0.0188,0,0,-0.0188,-0.0189,0,0,0,0,0,0,0,0,-0.0177,-0.0175,-0.0144,-0.0143,-0.0143,-0.0138,-0.0166,-0.0154,-0.0141,-0.0144,-0.0142,-0.0142,-0.0171,-0.0173,-0.0172,-0.019,-0.0192,-0.0189,-0.0189,-0.019,-0.019,0,0,0,0,0,0,0,-0.0178,-0.0176,-0.0141,-0.0143,-0.0143,-0.0153,-0.0151,-0.0164,-0.0158,-0.0144,-0.0144,-0.014,-0.0171,-0.0171,-0.0173,-0.0192,-0.0189,-0.019,-0.0191,-0.0191,-0.0239,-0.024,0,0,0,0,0,0,-0.0174,-0.0176,-0.0141,-0.014,-0.0159,-0.0152,-0.015,-0.0141,-0.0157,-0.0159,-0.014,-0.014,-0.0168,-0.0172,-0.0175,-0.0203,-0.019,-0.0191,-0.0192,-0.0239,-0.024,-0.024,0,0,0,0,0,0,-0.0175,-0.0171,-0.0141,-0.0157,-0.0154,-0.015,-0.014,-0.014,-0.0137,-0.0153,-0.0157,-0.0136,-0.0169,-0.0173,-0.0187,-0.0204,-0.0192,-0.0193,-0.0239,-0.0239,-0.024,-0.0245,0,0,0,0,0,0,-0.0177,-0.0171,-0.0166,-0.0157,-0.0153,-0.0132,-0.014,-0.014,-0.0134,-0.0134,-0.0151,-0.0155,-0.0169,-0.0185,-0.0189,-0.0205,-0.0194,-0.0238,-0.0239,-0.024,-0.0244,-0.0245,-0.0246,0,0,0,0,0,-0.0178,-0.0168,-0.0165,-0.0161,-0.0144,-0.0132,-0.0131,-0.0131,-0.0133,-0.0129,-0.0145,-0.0155,-0.0193,-0.0186,-0.0191,-0.0208,-0.0238,-0.0239,-0.024,-0.0243,-0.0245,-0.0246,0,0,0,0,0,0,-0.019,-0.0167,-0.0164,-0.0149,-0.0139,-0.0132,-0.0128,-0.0127,-0.0134,-0.0137,-0.0155,-0.0161,-0.018,-0.019,-0.0182,-0.0224,-0.0219,-0.0221,-0.022,-0.0222,-0.0224,-0.0186,-0.0195,0,0,0,0,0,-0.0188,-0.0172,-0.0157,-0.0145,-0.0138,-0.0132,-0.0128,-0.0125,-0.0128,-0.0131,-0.0143,-0.0163,-0.0187,-0.02,-0.0215,-0.0236,-0.0203,-0.0251,-0.0252,-0.0253,-0.0226,-0.0216,-0.0213,-0.0243,-0.0243,-0.0243,0,0,-0.0191,-0.0175,-0.0168,-0.0146,-0.0139,-0.0127,-0.013,-0.0119,-0.0119,-0.0136,-0.0143,-0.0162,-0.0191,-0.0216,-0.0227,-0.0228,-0.0222,-0.0255,-0.0256,-0.0227,-0.0216,-0.0213,-0.021,-0.0244,-0.0244,-0.0244,0,0,-0.0183,-0.0172,-0.0155,-0.0144,-0.0126,-0.0122,-0.0116,-0.0106,-0.0113,-0.0118,-0.014,-0.0166,-0.0189,-0.0221,-0.024,-0.0257,-0.0226,-0.0265,-0.0248,-0.024,-0.0236,-0.0233,-0.0159,-0.0149,-0.0272,-0.0272,-0.0272,0,-0.0189,-0.0158,-0.015,-0.0131,-0.0116,-0.0118,-0.0097,-0.0109,-0.0108,-0.0113,-0.0119,-0.0158,-0.0193,-0.023,-0.024,-0.0261,-0.0216,-0.0243,-0.024,-0.0236,-0.0233,-0.0157,-0.0147,-0.0273,-0.0273,-0.0273,-0.0273,0,-0.0166,-0.0142,-0.0131,-0.0104,-0.0095,-0.0075,-0.0081,-0.0084,-0.009,-0.0099,-0.012,-0.016,-0.0167,-0.0212,-0.0231,-0.0238,-0.0198,-0.0238,-0.0231,-0.0229,-0.015,-0.0139,-0.0273,-0.0273,-0.0273,-0.0273,0,0,-0.0164,-0.0121,-0.0115,-0.0086,-0.0073,-0.0053,-0.0067,-0.0064,-0.0055,-0.0085,-0.0067,-0.0145,-0.0137,-0.0157,-0.0193,-0.0212,-0.0163,-0.0205,-0.0205,-0.012,-0.0073,-0.0139,-0.0132,-0.0195,-0.0194,-0.0193,-0.0016,0,-0.0142,-0.009,-0.0081,-0.0036,-0.0004,-0.0012,-0.0013,-0.0021,-0.003,-0.0017,-0.0077,-0.0064,-0.0127,-0.0108,-0.0141,-0.0147,-0.0135,-0.0202,-0.0095,-0.009,-0.0142,-0.0124,-0.019,-0.0007,-0.0005,-0.0003,-0.0001,0,-0.0112,-0.0076,-0.002,0.0027,0.004,0.0062,0.0086,0.0086,0.0071,0.007,0.0059,0.0049,0.0039,-0.0016,-0.0009,-0.0036,-0.0034,-0.0058,-0.0053,-0.0101,-0.0137,-0.0018,0.002,0.0018,0.0017,0.0015,0.0014,0,-0.0084,-0.0029,0.0026,0.0042,0.0084,0.0108,0.0127,0.012,0.0118,0.0158,0.0179,0.017,0.0197,0.0173,0.0144,0.0094,0.0163,0.0086,0.0034,0.0033,0.0044,0.0038,0.0104,0.0104,0.0104,0.0103,0.0103,0,-0.0052,-0.0007,0.0055,0.0088,0.0149,0.0168,0.0212,0.0224,0.0236,0.0231,0.0254,0.0244,0.0244,0.0265,0.0221,0.019,0.0244,0.0068,0.0064,0.0042,0.0033,0.0055,0.0047,0.011,0.0108,0.0107,0.0106,0,-0.0027,0.001,0.0083,0.015,0.0169,0.0223,0.0255,0.0256,0.0306,0.031,0.0339,0.035,0.0357,0.0362,0.0356,0.0298,0.0268,0.0245,0.0307,0.03,0.0124,0.0113,0.021,0.0209,0.0208,0.0208,0.0207,0,-0.001,0.0034,0.0127,0.0144,0.0181,0.0242,0.0241,0.0286,0.0277,0.0321,0.0307,0.0363,0.0348,0.0355,0.0324,0.0325,0.0262,0.0329,0.0133,0.0143,0.0131,0.0121,0.0113,0.0205,0.0205,0.0205,0.0205,0,0.0016,0.0059,0.0106,0.014,0.0168,0.0192,0.0212,0.0221,0.0248,0.0298,0.0286,0.029,0.0298,0.0282,0.0341,0.0288,0.0325,0.0318,0.0316,0.0131,0.0139,0.0125,0.0117,0.0202,0.0202,0.0202,0.0203,0,0.0026,0.0051,0.0087,0.0121,0.0134,0.0123,0.0157,0.0147,0.0168,0.0228,0.0207,0.0234,0.0279,0.026,0.0265,0.0273,0.0192,0.0175,0.0178,0.0182,0.0072,0.0071,0.0133,0,0,0,0,0,0.0033,0.0025,0.0037,0.0067,0.0071,0.0076,0.0097,0.0119,0.017,0.015,0.0188,0.0176,0.0172,0.0174,0.0157,0.0179,0.0181,0.0156,0.0161,0.0184,0.0188,0.005,0,0,0,0,0,0,0.0015,0.0029,0.0024,-0.0,-0.0004,-0.0011,0.0004,0.0039,0.0042,0.0103,0.0102,0.0151,0.0147,0.018,0.0149,0.0151,0.0144,0.0175,0.0174,0.0182,0.0185,0.0188,0.0047,0,0,0,0,0]},{"header":{"parameterUnit":"m.s-1","parameterCategory":2,"la1":30.2991,"la2":30.254,"lo1":-89.0895,"lo2":-89.0444,"dy":0.0017,"dx":0.0017,"nx":28,"ny":28,"refTime":"2025-07-26T21:00:00:Z","depth":"4","parameterNumber":3,"parameterNumberName":"V-component_of_CURRENTS"},"data":[0,0,0,0,0,0,0,0,0,0,0,0,0,0,0,0,0,0,0,0,0,0,0,0,0,0,0,0,0,0,0,0,0,0,0,0,0,0,0,0,0,0,0,0,0,0,0,0,0,0,0,0,0,0,0,0,0,0,0.0427,0.0426,0,0.042,0.042,0.042,0.0419,0.0419,0.0419,0.042,0.0427,0.0427,0.0428,0,0,0,0,0,0,0,0,0,0,0,0,0,0.0411,0.0412,0.0427,0.0426,0.0426,0.042,0.042,0.042,0.0419,0.0419,0.042,0.042,0.0427,0.0427,0.0428,0,0,0,0,0,0,0,0,0,0,0,0,0,0.0413,0.0412,0.0427,0.0426,0.0425,0.042,0.042,0.042,0.0419,0.0419,0.042,0.042,0.0427,0.0427,0.0428,0.0426,0,0,0.0428,0.0428,0,0,0,0,0,0,0,0,0.0413,0.0413,0.0426,0.0426,0.0425,0.0421,0.0418,0.0423,0.0419,0.0421,0.042,0.042,0.0427,0.0427,0.0425,0.0426,0.0427,0.0428,0.0428,0.0428,0.0428,0,0,0,0,0,0,0,0.0412,0.0413,0.0424,0.0426,0.0426,0.0416,0.0417,0.0419,0.0423,0.0421,0.0421,0.0421,0.0427,0.0425,0.0425,0.0427,0.0428,0.0428,0.0428,0.0429,0.0426,0.0425,0,0,0,0,0,0,0.0415,0.0413,0.0424,0.0424,0.042,0.0417,0.0417,0.0422,0.0423,0.0423,0.0421,0.0421,0.0424,0.0425,0.0425,0.0423,0.0428,0.0429,0.0429,0.0426,0.0426,0.0425,0,0,0,0,0,0,0.0415,0.0417,0.0424,0.0418,0.0419,0.0417,0.0422,0.0422,0.0423,0.0423,0.0423,0.0423,0.0424,0.0425,0.0424,0.0423,0.0429,0.0429,0.0426,0.0426,0.0425,0.0419,0,0,0,0,0,0,0.0415,0.0417,0.0425,0.0419,0.0419,0.0419,0.0422,0.0422,0.0423,0.0423,0.0425,0.0426,0.0424,0.0424,0.0424,0.0424,0.0429,0.0426,0.0426,0.0426,0.042,0.0419,0.0418,0,0,0,0,0,0.0414,0.0422,0.0425,0.0427,0.0429,0.0419,0.0418,0.0417,0.0423,0.042,0.0421,0.0426,0.0422,0.0424,0.0424,0.0424,0.0426,0.0426,0.0426,0.042,0.0419,0.0418,0,0,0,0,0,0,0.042,0.0423,0.0426,0.0435,0.0427,0.0419,0.042,0.042,0.0418,0.042,0.0423,0.0423,0.0418,0.0424,0.0426,0.0422,0.0425,0.0425,0.0421,0.042,0.0419,0.0437,0.0429,0,0,0,0,0,0.0426,0.0432,0.0428,0.0434,0.0432,0.0427,0.0426,0.0421,0.0418,0.0418,0.0421,0.0422,0.0416,0.0421,0.0414,0.0418,0.0422,0.0418,0.0417,0.0417,0.0431,0.0435,0.0436,0.0424,0.0424,0.0424,0,0,0.0429,0.0432,0.0436,0.0436,0.0432,0.0426,0.0426,0.042,0.0419,0.0419,0.0423,0.0415,0.0413,0.0409,0.0409,0.0417,0.0417,0.0416,0.0415,0.0431,0.0435,0.0436,0.0437,0.0424,0.0424,0.0424,0,0,0.0424,0.0442,0.0437,0.0433,0.0426,0.0426,0.0426,0.0418,0.042,0.0423,0.0413,0.0409,0.0416,0.0406,0.0405,0.0399,0.0405,0.0397,0.0417,0.042,0.0422,0.0423,0.0411,0.0411,0.0406,0.0406,0.0406,0,0.0426,0.0434,0.0432,0.0423,0.043,0.0428,0.0425,0.0421,0.0415,0.0414,0.0426,0.0418,0.0416,0.0403,0.0406,0.0398,0.04,0.042,0.042,0.0421,0.0423,0.041,0.0411,0.0405,0.0405,0.0405,0.0405,0,0.0409,0.0424,0.0422,0.0419,0.0416,0.0421,0.0414,0.0409,0.0424,0.0422,0.0418,0.0416,0.0416,0.0409,0.0414,0.0414,0.041,0.041,0.0424,0.0424,0.041,0.0411,0.0405,0.0405,0.0405,0.0405,0,0,0.0406,0.0412,0.0416,0.0427,0.0426,0.0425,0.0416,0.0414,0.0408,0.0416,0.0415,0.0417,0.042,0.042,0.0413,0.0426,0.0431,0.0435,0.0436,0.0426,0.0432,0.0386,0.0382,0.0436,0.0437,0.0437,0.0411,0,0.0405,0.0411,0.0407,0.0423,0.0435,0.0429,0.0422,0.0411,0.0413,0.0405,0.0408,0.0414,0.0422,0.0431,0.0438,0.0423,0.0437,0.0438,0.0433,0.0432,0.0393,0.0382,0.0439,0.0412,0.0412,0.0412,0.0412,0,0.0391,0.0411,0.0441,0.0448,0.0449,0.0467,0.0467,0.0453,0.0426,0.0422,0.042,0.0414,0.0417,0.044,0.0434,0.0436,0.0448,0.0447,0.0446,0.0411,0.0388,0.0417,0.0414,0.0413,0.0413,0.0413,0.0413,0,0.041,0.0427,0.0473,0.0482,0.049,0.0512,0.0514,0.0484,0.0465,0.0456,0.0447,0.0429,0.0445,0.0443,0.0437,0.0445,0.0429,0.0431,0.0399,0.0394,0.0449,0.0448,0.0455,0.0455,0.0455,0.0455,0.0455,0,0.0412,0.0444,0.0511,0.0538,0.059,0.0568,0.059,0.057,0.0528,0.0498,0.0486,0.045,0.0458,0.0434,0.0427,0.0399,0.042,0.0403,0.0388,0.0442,0.0441,0.0448,0.0447,0.0454,0.0454,0.0454,0.0454,0,0.0419,0.0457,0.0528,0.0588,0.0614,0.0662,0.0657,0.0625,0.0608,0.0568,0.0573,0.0491,0.0452,0.0434,0.0417,0.0395,0.0368,0.0365,0.0409,0.0397,0.0334,0.0333,0.0316,0.0314,0.0312,0.0311,0.031,0,0.0416,0.0463,0.0593,0.0639,0.0692,0.0744,0.0736,0.0697,0.0649,0.0569,0.0532,0.0494,0.0446,0.037,0.0346,0.0316,0.0329,0.0318,0.0348,0.0334,0.0321,0.0323,0.0325,0.0308,0.0307,0.0307,0.0306,0,0.043,0.0512,0.0566,0.0664,0.072,0.0754,0.0753,0.0724,0.0643,0.0624,0.0508,0.0453,0.0396,0.0334,0.0329,0.0302,0.0314,0.0302,0.0306,0.0334,0.0324,0.0313,0.0317,0.0301,0.0302,0.0302,0.0303,0,0.0447,0.0491,0.057,0.067,0.072,0.0749,0.0756,0.0687,0.0641,0.0551,0.05,0.0432,0.0391,0.0323,0.0286,0.0277,0.0281,0.0289,0.0294,0.0299,0.0301,0.0285,0.024,0,0,0,0,0,0.0445,0.0477,0.0543,0.0637,0.0688,0.0739,0.0724,0.0701,0.0642,0.0566,0.0537,0.0471,0.0389,0.0319,0.0308,0.027,0.0289,0.0252,0.0305,0.0272,0.0278,0.0278,0,0,0,0,0,0,0.0417,0.0472,0.0526,0.0606,0.0664,0.0696,0.0709,0.0679,0.0623,0.057,0.0521,0.0479,0.0399,0.0428,0.0319,0.0305,0.0334,0.021,0.021,0.0269,0.0274,0.0279,0.0281,0,0,0,0,0]}]]